Time,TemperatureF,DewpointF,PressureIn,WindDirection,WindDirectionDegrees,WindSpeedMPH,WindSpeedGustMPH,Humidity,HourlyPrecipIn,Conditions,Clouds,dailyrainin,SoftwareType,DateUTC
2013-04-16 00:00:00,43.7,38.0,29.94,NW,311,14.0,21.0,81,0.00,,,0.00,,2013-04-16 07:00:00,
2013-04-16 00:10:00,43.5,38.0,29.94,WNW,300,8.0,17.0,82,0.00,,,0.00,,2013-04-16 07:10:00,
2013-04-16 00:20:00,43.4,39.0,29.94,NW,304,10.0,19.0,83,0.00,,,0.00,,2013-04-16 07:20:00,
2013-04-16 00:30:00,43.4,38.0,29.94,WNW,302,14.0,17.0,82,0.00,,,0.00,,2013-04-16 07:30:00,
2013-04-16 00:40:00,43.4,38.0,29.94,WNW,302,12.0,20.0,82,0.00,,,0.00,,2013-04-16 07:40:00,
2013-04-16 00:50:00,43.1,38.0,29.94,WNW,291,14.0,16.0,82,0.00,,,0.00,,2013-04-16 07:50:00,
2013-04-16 01:00:00,43.3,38.0,29.94,WNW,295,11.0,19.0,82,0.00,,,0.00,,2013-04-16 08:00:00,
2013-04-16 01:10:00,43.1,38.0,29.94,WNW,298,10.0,14.0,82,0.00,,,0.00,,2013-04-16 08:10:00,
2013-04-16 01:20:00,43.1,38.0,29.94,WNW,288,10.0,14.0,81,0.00,,,0.00,,2013-04-16 08:20:00,
2013-04-16 01:30:00,43.0,37.0,29.94,WNW,286,12.0,13.0,80,0.00,,,0.00,,2013-04-16 08:30:00,
2013-04-16 01:40:00,42.7,37.0,29.94,WNW,293,13.0,15.0,80,0.00,,,0.00,,2013-04-16 08:40:00,
2013-04-16 01:50:00,42.7,37.0,29.94,NW,304,9.0,16.0,79,0.00,,,0.00,,2013-04-16 08:50:00,
2013-04-16 02:00:00,42.9,36.0,29.94,WNW,302,9.0,12.0,77,0.00,,,0.00,,2013-04-16 09:00:00,
2013-04-16 02:10:00,43.3,36.0,29.94,NW,304,6.0,11.0,74,0.00,,,0.00,,2013-04-16 09:10:00,
2013-04-16 02:20:00,42.8,35.0,29.94,NW,311,4.0,7.0,74,0.00,,,0.00,,2013-04-16 09:20:00,
2013-04-16 02:30:00,41.9,35.0,29.94,NW,311,3.0,7.0,75,0.00,,,0.00,,2013-04-16 09:30:00,
2013-04-16 02:40:00,41.3,34.0,29.95,NW,311,3.0,6.0,74,0.00,,,0.00,,2013-04-16 09:40:00,
2013-04-16 02:50:00,41.5,33.0,29.95,NW,313,0.0,6.0,73,0.00,,,0.00,,2013-04-16 09:50:00,
2013-04-16 03:00:00,41.7,33.0,29.95,NW,314,2.0,5.0,72,0.00,,,0.00,,2013-04-16 10:00:00,
2013-04-16 03:10:00,42.3,34.0,29.95,NW,314,3.0,6.0,72,0.00,,,0.00,,2013-04-16 10:10:00,
2013-04-16 03:20:00,42.1,34.0,29.95,NW,314,0.0,4.0,72,0.00,,,0.00,,2013-04-16 10:20:00,
2013-04-16 03:30:00,42.0,34.0,29.95,NW,314,3.0,4.0,73,0.00,,,0.00,,2013-04-16 10:30:00,
2013-04-16 03:40:00,42.4,34.0,29.95,NW,314,2.0,2.0,72,0.00,,,0.00,,2013-04-16 10:40:00,
2013-04-16 03:50:00,42.5,34.0,29.95,NW,314,3.0,5.0,73,0.00,,,0.00,,2013-04-16 10:50:00,
2013-04-16 04:00:00,42.6,34.0,29.95,NW,314,1.0,3.0,72,0.00,,,0.00,,2013-04-16 11:00:00,
2013-04-16 04:10:00,42.8,34.0,29.95,NW,314,2.0,4.0,72,0.00,,,0.00,,2013-04-16 11:10:00,
2013-04-16 04:20:00,42.7,34.0,29.95,NW,314,1.0,5.0,72,0.00,,,0.00,,2013-04-16 11:20:00,
2013-04-16 04:30:00,42.5,34.0,29.95,NW,314,2.0,4.0,73,0.00,,,0.00,,2013-04-16 11:30:00,
2013-04-16 04:40:00,42.4,34.0,29.95,NW,314,1.0,3.0,72,0.00,,,0.00,,2013-04-16 11:40:00,
2013-04-16 04:50:00,41.9,34.0,29.95,NW,314,1.0,2.0,72,0.00,,,0.00,,2013-04-16 11:50:00,
2013-04-16 05:00:00,42.1,34.0,29.95,NW,314,0.0,0.0,72,0.00,,,0.00,,2013-04-16 12:00:00,
2013-04-16 05:10:00,42.0,33.0,29.96,NW,314,0.0,0.0,71,0.00,,,0.00,,2013-04-16 12:10:00,
2013-04-16 05:20:00,42.1,33.0,29.96,NW,314,0.0,0.0,70,0.00,,,0.00,,2013-04-16 12:20:00,
2013-04-16 05:30:00,42.1,33.0,29.96,NW,314,0.0,1.0,70,0.00,,,0.00,,2013-04-16 12:30:00,
2013-04-16 05:40:00,42.4,33.0,29.97,NW,313,4.0,6.0,70,0.00,,,0.00,,2013-04-16 12:40:00,
2013-04-16 05:50:00,43.2,35.0,29.97,NW,309,4.0,7.0,73,0.00,,,0.00,,2013-04-16 12:50:00,
2013-04-16 06:00:00,42.8,35.0,29.97,NW,309,5.0,6.0,73,0.00,,,0.00,,2013-04-16 13:00:00,
2013-04-16 06:10:00,42.6,35.0,29.97,NW,309,3.0,8.0,74,0.00,,,0.00,,2013-04-16 13:10:00,
2013-04-16 06:20:00,42.8,34.0,29.97,NW,309,1.0,3.0,72,0.00,,,0.00,,2013-04-16 13:20:00,
2013-04-16 06:30:00,42.7,34.0,29.97,NW,309,2.0,4.0,70,0.00,,,0.00,,2013-04-16 13:30:00,
2013-04-16 06:40:00,42.7,33.0,29.98,NW,309,0.0,0.0,69,0.00,,,0.00,,2013-04-16 13:40:00,
2013-04-16 06:50:00,42.7,33.0,29.98,NW,309,2.0,3.0,68,0.00,,,0.00,,2013-04-16 13:50:00,
2013-04-16 07:00:00,40.8,32.0,29.99,NW,309,0.0,0.0,72,0.00,,,0.00,,2013-04-16 14:00:00,
2013-04-16 07:10:00,42.5,34.0,29.99,NW,309,0.0,0.0,71,0.00,,,0.00,,2013-04-16 14:10:00,
2013-04-16 07:20:00,44.7,35.0,29.99,NW,309,0.0,0.0,68,0.00,,,0.00,,2013-04-16 14:20:00,
2013-04-16 07:30:00,45.1,34.0,29.99,NW,309,0.0,1.0,66,0.00,,,0.00,,2013-04-16 14:30:00,
2013-04-16 07:40:00,45.9,35.0,29.99,NW,309,0.0,3.0,66,0.00,,,0.00,,2013-04-16 14:40:00,
2013-04-16 07:50:00,47.0,36.0,29.99,NW,309,0.0,1.0,65,0.00,,,0.00,,2013-04-16 14:50:00,
2013-04-16 08:00:00,48.0,36.0,29.99,NW,309,3.0,4.0,63,0.00,,,0.00,,2013-04-16 15:00:00,
2013-04-16 08:10:00,48.4,36.0,29.99,NW,309,3.0,6.0,61,0.00,,,0.00,,2013-04-16 15:10:00,
2013-04-16 08:20:00,48.5,35.0,30.00,WNW,286,2.0,9.0,60,0.00,,,0.00,,2013-04-16 15:20:00,
2013-04-16 08:30:00,49.4,36.0,30.00,WNW,286,6.0,7.0,59,0.00,,,0.00,,2013-04-16 15:30:00,
2013-04-16 08:40:00,49.2,35.0,30.00,WNW,291,5.0,9.0,59,0.00,,,0.00,,2013-04-16 15:40:00,
2013-04-16 08:50:00,49.4,37.0,30.00,WNW,282,9.0,9.0,63,0.00,,,0.00,,2013-04-16 15:50:00,
2013-04-16 09:00:00,49.1,38.0,30.00,WNW,291,9.0,14.0,65,0.00,,,0.00,,2013-04-16 16:00:00,
2013-04-16 09:10:00,50.0,38.0,30.00,West,267,11.0,14.0,64,0.00,,,0.00,,2013-04-16 16:10:00,
2013-04-16 09:20:00,49.6,39.0,30.00,West,273,11.0,16.0,67,0.00,,,0.00,,2013-04-16 16:20:00,
2013-04-16 09:30:00,49.5,40.0,30.00,West,275,13.0,17.0,70,0.00,,,0.00,,2013-04-16 16:30:00,
2013-04-16 09:40:00,49.1,41.0,30.00,West,276,14.0,19.0,73,0.00,,,0.00,,2013-04-16 16:40:00,
2013-04-16 09:50:00,48.9,41.0,30.00,West,273,14.0,19.0,75,0.00,,,0.00,,2013-04-16 16:50:00,
2013-04-16 10:00:00,49.4,42.0,30.00,West,276,15.0,20.0,76,0.00,,,0.00,,2013-04-16 17:00:00,
2013-04-16 10:10:00,49.7,41.0,30.00,West,265,15.0,21.0,73,0.00,,,0.00,,2013-04-16 17:10:00,
2013-04-16 10:20:00,50.5,40.0,30.00,West,273,19.0,19.0,68,0.00,,,0.00,,2013-04-16 17:20:00,
2013-04-16 10:30:00,50.5,43.0,30.01,West,267,17.0,20.0,75,0.00,,,0.00,,2013-04-16 17:30:00,
2013-04-16 10:40:00,50.9,43.0,30.01,West,277,16.0,20.0,74,0.00,,,0.00,,2013-04-16 17:40:00,
2013-04-16 10:50:00,50.7,43.0,30.01,West,268,18.0,22.0,76,0.00,,,0.00,,2013-04-16 17:50:00,
2013-04-16 11:00:00,50.8,44.0,30.01,West,266,18.0,23.0,76,0.00,,,0.00,,2013-04-16 18:00:00,
2013-04-16 11:10:00,51.1,44.0,30.01,West,272,20.0,22.0,77,0.00,,,0.00,,2013-04-16 18:10:00,
2013-04-16 11:20:00,51.2,44.0,30.01,West,267,22.0,24.0,77,0.00,,,0.00,,2013-04-16 18:20:00,
2013-04-16 11:30:00,50.9,44.0,30.01,West,279,21.0,24.0,77,0.00,,,0.00,,2013-04-16 18:30:00,
2013-04-16 11:40:00,51.0,43.0,30.01,West,278,21.0,28.0,74,0.00,,,0.00,,2013-04-16 18:40:00,
2013-04-16 11:50:00,51.6,44.0,30.01,West,277,13.0,27.0,75,0.00,,,0.00,,2013-04-16 18:50:00,
2013-04-16 12:00:00,50.5,43.0,30.01,WNW,295,20.0,20.0,76,0.00,,,0.00,,2013-04-16 19:00:00,
2013-04-16 12:10:00,51.4,44.0,30.01,WNW,283,19.0,29.0,76,0.00,,,0.00,,2013-04-16 19:10:00,
2013-04-16 12:20:00,50.5,44.0,30.01,West,276,30.0,34.0,77,0.00,,,0.00,,2013-04-16 19:20:00,
2013-04-16 12:30:00,50.3,45.0,30.01,West,274,30.0,36.0,81,0.00,,,0.00,,2013-04-16 19:30:00,
2013-04-16 12:40:00,50.6,44.0,30.01,West,271,25.0,35.0,79,0.00,,,0.00,,2013-04-16 19:40:00,
2013-04-16 12:50:00,50.7,43.0,30.00,WNW,290,21.0,36.0,76,0.00,,,0.00,,2013-04-16 19:50:00,
2013-04-16 13:00:00,50.7,43.0,30.01,WNW,286,29.0,37.0,76,0.00,,,0.00,,2013-04-16 20:00:00,
2013-04-16 13:10:00,50.6,44.0,30.00,West,274,30.0,39.0,77,0.00,,,0.00,,2013-04-16 20:10:00,
2013-04-16 13:20:00,50.9,44.0,30.00,WNW,285,25.0,39.0,76,0.00,,,0.00,,2013-04-16 20:20:00,
2013-04-16 13:30:00,51.4,43.0,29.99,West,276,30.0,35.0,72,0.00,,,0.00,,2013-04-16 20:30:00,
2013-04-16 13:40:00,50.9,44.0,30.00,WNW,284,33.0,39.0,76,0.00,,,0.00,,2013-04-16 20:40:00,
2013-04-16 13:50:00,51.1,43.0,30.00,West,265,38.0,39.0,75,0.00,,,0.00,,2013-04-16 20:50:00,
2013-04-16 14:00:00,51.7,44.0,29.99,West,273,29.0,40.0,74,0.00,,,0.00,,2013-04-16 21:00:00,
2013-04-16 14:10:00,51.3,44.0,29.99,WNW,289,33.0,39.0,75,0.00,,,0.00,,2013-04-16 21:10:00,
2013-04-16 14:20:00,51.9,44.0,29.99,WNW,284,29.0,40.0,75,0.00,,,0.00,,2013-04-16 21:20:00,
2013-04-16 14:30:00,51.8,44.0,29.99,WNW,286,26.0,42.0,76,0.00,,,0.00,,2013-04-16 21:30:00,
2013-04-16 14:40:00,51.2,43.0,29.98,West,280,33.0,46.0,74,0.00,,,0.00,,2013-04-16 21:40:00,
2013-04-16 14:50:00,51.2,43.0,29.98,West,267,35.0,41.0,74,0.00,,,0.00,,2013-04-16 21:50:00,
2013-04-16 15:00:00,51.2,43.0,29.98,WNW,302,33.0,45.0,73,0.00,,,0.00,,2013-04-16 22:00:00,
2013-04-16 15:10:00,52.1,44.0,29.98,West,272,31.0,43.0,73,0.00,,,0.00,,2013-04-16 22:10:00,
2013-04-16 15:20:00,51.6,43.0,29.98,WNW,288,31.0,43.0,73,0.00,,,0.00,,2013-04-16 22:20:00,
2013-04-16 15:30:00,51.5,42.0,29.98,WNW,285,26.0,43.0,71,0.00,,,0.00,,2013-04-16 22:30:00,
2013-04-16 15:40:00,51.9,42.0,29.97,West,273,34.0,47.0,70,0.00,,,0.00,,2013-04-16 22:40:00,
2013-04-16 15:50:00,51.7,42.0,29.97,WNW,290,30.0,41.0,69,0.00,,,0.00,,2013-04-16 22:50:00,
2013-04-16 16:00:00,51.7,41.0,29.97,West,277,32.0,43.0,67,0.00,,,0.00,,2013-04-16 23:00:00,
2013-04-16 16:10:00,52.7,42.0,29.97,West,275,28.0,38.0,67,0.00,,,0.00,,2013-04-16 23:10:00,
2013-04-16 16:20:00,51.9,42.0,29.97,WNW,290,41.0,45.0,69,0.00,,,0.00,,2013-04-16 23:20:00,
2013-04-16 16:30:00,52.0,43.0,29.97,WNW,297,33.0,41.0,70,0.00,,,0.00,,2013-04-16 23:30:00,
2013-04-16 16:40:00,51.7,42.0,29.97,West,275,30.0,42.0,70,0.00,,,0.00,,2013-04-16 23:40:00,
2013-04-16 16:50:00,51.5,42.0,29.97,West,271,36.0,45.0,71,0.00,,,0.00,,2013-04-16 23:50:00,
2013-04-16 17:00:00,50.8,42.0,29.97,West,275,35.0,49.0,73,0.00,,,0.00,,2013-04-17 00:00:00,
2013-04-16 17:10:00,50.8,43.0,29.97,NW,311,26.0,40.0,75,0.00,,,0.00,,2013-04-17 00:10:00,
2013-04-16 17:20:00,50.4,43.0,29.96,WNW,294,30.0,41.0,76,0.00,,,0.00,,2013-04-17 00:20:00,
2013-04-16 17:30:00,50.4,43.0,29.96,WNW,288,38.0,42.0,75,0.00,,,0.00,,2013-04-17 00:30:00,
2013-04-16 17:40:00,50.6,43.0,29.96,West,275,37.0,41.0,74,0.00,,,0.00,,2013-04-17 00:40:00,
2013-04-16 17:50:00,50.8,42.0,29.96,WNW,287,29.0,38.0,73,0.00,,,0.00,,2013-04-17 00:50:00,
2013-04-16 18:00:00,50.6,42.0,29.96,WNW,288,23.0,38.0,73,0.00,,,0.00,,2013-04-17 01:00:00,
2013-04-16 18:10:00,50.3,42.0,29.96,WNW,286,26.0,38.0,73,0.00,,,0.00,,2013-04-17 01:10:00,
2013-04-16 18:20:00,50.5,42.0,29.96,WNW,292,26.0,40.0,72,0.00,,,0.00,,2013-04-17 01:20:00,
2013-04-16 18:30:00,50.8,42.0,29.96,WNW,284,31.0,35.0,71,0.00,,,0.00,,2013-04-17 01:30:00,
2013-04-16 18:40:00,50.9,41.0,29.97,WNW,288,32.0,37.0,69,0.00,,,0.00,,2013-04-17 01:40:00,
2013-04-16 18:50:00,50.4,41.0,29.96,WNW,283,29.0,38.0,71,0.00,,,0.00,,2013-04-17 01:50:00,
2013-04-16 19:00:00,50.5,41.0,29.96,WNW,296,37.0,37.0,69,0.00,,,0.00,,2013-04-17 02:00:00,
2013-04-16 19:10:00,49.9,41.0,29.97,WNW,288,28.0,39.0,71,0.00,,,0.00,,2013-04-17 02:10:00,
2013-04-16 19:20:00,49.2,41.0,29.96,WNW,297,32.0,38.0,73,0.00,,,0.00,,2013-04-17 02:20:00,
2013-04-16 19:30:00,48.6,41.0,29.97,WNW,286,25.0,37.0,76,0.00,,,0.00,,2013-04-17 02:30:00,
2013-04-16 19:40:00,48.2,42.0,29.97,WNW,286,24.0,31.0,78,0.00,,,0.00,,2013-04-17 02:40:00,
2013-04-16 19:50:00,47.9,42.0,29.97,West,271,20.0,32.0,80,0.00,,,0.00,,2013-04-17 02:50:00,
2013-04-16 20:00:00,48.1,42.0,29.97,WNW,290,19.0,29.0,79,0.00,,,0.00,,2013-04-17 03:00:00,
2013-04-16 20:10:00,47.9,42.0,29.98,WNW,294,20.0,25.0,79,0.00,,,0.00,,2013-04-17 03:10:00,
2013-04-16 20:20:00,49.5,40.0,29.98,WNW,283,16.0,22.0,71,0.00,,,0.00,,2013-04-17 03:20:00,
2013-04-16 20:30:00,51.0,39.0,29.99,WNW,291,15.0,19.0,64,0.00,,,0.00,,2013-04-17 03:30:00,
2013-04-16 20:40:00,50.6,39.0,29.99,WNW,298,12.0,17.0,64,0.00,,,0.00,,2013-04-17 03:40:00,
2013-04-16 20:50:00,51.0,38.0,30.00,WNW,294,10.0,12.0,62,0.00,,,0.00,,2013-04-17 03:50:00,
2013-04-16 21:10:00,52.9,35.0,30.01,WNW,303,4.0,10.0,50,0.00,,,0.00,,2013-04-17 04:10:00,
2013-04-16 21:20:00,53.0,34.0,30.02,NW,311,5.0,9.0,48,0.00,,,0.00,,2013-04-17 04:20:00,
2013-04-16 21:30:00,54.4,32.0,30.02,WNW,295,7.0,13.0,42,0.00,,,0.00,,2013-04-17 04:30:00,
2013-04-16 21:40:00,54.5,32.0,30.03,NW,304,5.0,11.0,43,0.00,,,0.00,,2013-04-17 04:40:00,
2013-04-16 21:50:00,54.1,32.0,30.03,WNW,298,9.0,11.0,42,0.00,,,0.00,,2013-04-17 04:50:00,
2013-04-16 22:00:00,54.6,31.0,30.03,NNW,335,11.0,14.0,41,0.00,,,0.00,,2013-04-17 05:00:00,
2013-04-16 22:10:00,53.1,32.0,30.03,NW,322,7.0,13.0,45,0.00,,,0.00,,2013-04-17 05:10:00,
2013-04-16 22:20:00,53.5,32.0,30.04,NW,315,3.0,11.0,44,0.00,,,0.00,,2013-04-17 05:20:00,
2013-04-16 22:30:00,52.9,32.0,30.05,WNW,298,8.0,11.0,44,0.00,,,0.00,,2013-04-17 05:30:00,
2013-04-16 22:40:00,53.2,31.0,30.05,NW,319,7.0,11.0,43,0.00,,,0.00,,2013-04-17 05:40:00,
2013-04-16 22:50:00,52.3,33.0,30.05,WNW,284,9.0,13.0,48,0.00,,,0.00,,2013-04-17 05:50:00,
2013-04-16 23:00:00,50.7,36.0,30.05,WNW,288,13.0,16.0,57,0.00,,,0.00,,2013-04-17 06:00:00,
2013-04-16 23:10:00,50.1,37.0,30.05,WNW,285,15.0,17.0,60,0.00,,,0.00,,2013-04-17 06:10:00,
2013-04-16 23:20:00,48.7,39.0,30.05,West,281,13.0,18.0,70,0.00,,,0.00,,2013-04-17 06:20:00,
2013-04-16 23:30:00,49.0,39.0,30.05,WNW,286,14.0,19.0,67,0.00,,,0.00,,2013-04-17 06:30:00,
2013-04-16 23:40:00,50.3,37.0,30.05,West,277,17.0,21.0,60,0.00,,,0.00,,2013-04-17 06:40:00,
2013-04-16 23:50:00,50.6,37.0,30.05,WNW,292,19.0,21.0,59,0.00,,,0.00,,2013-04-17 06:50:00,